[[{"header":{"parameterUnit":"m.s-1","parameterCategory":1,"la1":30.2991,"la2":30.254,"lo1":-89.0895,"lo2":-89.0444,"dy":0.0017,"dx":0.0017,"nx":28,"ny":28,"refTime":"2024-03-21T09:00:00:Z","depth":0,"parameterNumber":2,"parameterNumberName":"U-component_of_WINDS"},"data":[0,0,0,0,0,0,0,0,0,0,0,0,0,0,0,0,0,0,0,0,0,0,0,0,0,0,0,0,0,0,0,0,0,0,0,0,0,0,0,0,0,0,0,0,0,0,0,0,0,0,0,0,0,0,0,0,0,0,4.5109,4.5108,0,4.5047,4.5046,4.5046,4.4936,4.4934,4.4932,4.493,4.4866,4.4866,4.4867,0,0,0,0,0,0,0,0,0,0,0,0,0,4.5133,4.5133,4.5109,4.5108,4.5107,4.5047,4.5046,4.5046,4.4936,4.4934,4.4931,4.4929,4.4866,4.4866,4.4867,0,0,0,0,0,0,0,0,0,0,0,0,0,4.5102,4.5133,4.5109,4.5046,4.5039,4.5047,4.5046,4.5045,4.4937,4.4934,4.4931,4.4928,4.4866,4.4866,4.4867,4.4931,0,0,4.4868,4.4868,0,0,0,0,0,0,0,0,4.5104,4.5102,4.5056,4.505,4.5043,4.4996,4.5031,4.5007,4.4938,4.4976,4.493,4.4926,4.4912,4.4908,4.4903,4.4928,4.4926,4.4868,4.4868,4.4868,4.4868,0,0,0,0,0,0,0,4.5106,4.5104,4.5084,4.5055,4.5047,4.5021,4.5013,4.5026,4.4962,4.4972,4.4964,4.4958,4.4908,4.4903,4.4901,4.4925,4.4868,4.4868,4.4868,4.4868,4.5004,4.5007,0,0,0,0,0,0,4.5118,4.5106,4.5086,4.5082,4.5067,4.5023,4.5014,4.5014,4.4962,4.4951,4.4961,4.4954,4.4904,4.4901,4.4899,4.4974,4.4868,4.4868,4.4869,4.5,4.5005,4.5008,0,0,0,0,0,0,4.5119,4.5117,4.5089,4.5092,4.5086,4.5026,4.5027,4.5015,4.501,4.4953,4.4941,4.4969,4.4902,4.4898,4.4925,4.497,4.4869,4.4869,4.4996,4.5002,4.5006,4.5123,0,0,0,0,0,0,4.512,4.5118,4.5141,4.5093,4.5087,4.5116,4.503,4.5016,4.5011,4.5001,4.4957,4.4947,4.4899,4.4925,4.4925,4.4969,4.4869,4.4992,4.4999,4.5005,4.5115,4.5132,4.5146,0,0,0,0,0,4.5121,4.5176,4.5143,4.5141,4.5115,4.5119,4.5115,4.5059,4.5015,4.5039,4.5003,4.4948,4.4965,4.4929,4.4928,4.4972,4.4989,4.4997,4.5004,4.5108,4.5129,4.5146,0,0,0,0,0,0,4.5229,4.5168,4.5131,4.5172,4.5152,4.51,4.5128,4.5082,4.5073,4.5064,4.4994,4.4986,4.5023,4.4999,4.496,4.5034,4.4969,4.4977,4.5048,4.5067,4.5082,4.5087,4.487,0,0,0,0,0,4.5258,4.5267,4.5212,4.5253,4.5245,4.5189,4.5189,4.5148,4.5124,4.5114,4.508,4.5059,4.506,4.5062,4.5059,4.5111,4.5102,4.5141,4.5157,4.517,4.5178,4.5208,4.5226,4.5033,4.5033,4.5033,0,0,4.5317,4.5285,4.5294,4.5275,4.5254,4.5266,4.5182,4.5197,4.5205,4.5116,4.5141,4.5115,4.5087,4.5129,4.5145,4.5111,4.5229,4.5179,4.519,4.5191,4.5217,4.5236,4.5252,4.5038,4.5037,4.5037,0,0,4.5431,4.5406,4.544,4.5422,4.5392,4.5355,4.5364,4.532,4.53,4.5324,4.5259,4.5267,4.5269,4.5253,4.5245,4.5358,4.5308,4.5359,4.544,4.5469,4.5485,4.5498,4.5541,4.5557,4.5367,4.5367,4.5367,0,4.5508,4.5523,4.5463,4.5483,4.5477,4.5399,4.5434,4.5419,4.539,4.5388,4.535,4.5354,4.5329,4.5368,4.5396,4.5391,4.54,4.5364,4.5487,4.55,4.5511,4.5552,4.5568,4.5374,4.5373,4.5372,4.5371,0,4.5621,4.5632,4.5662,4.5639,4.5636,4.5663,4.5609,4.5614,4.5574,4.5542,4.5569,4.5537,4.5528,4.5534,4.5494,4.5568,4.5548,4.55,4.5433,4.5537,4.5574,4.5589,4.5383,4.5381,4.5379,4.5377,0,0,4.58,4.5745,4.5757,4.5747,4.5711,4.5719,4.5743,4.5736,4.5743,4.5726,4.5747,4.5752,4.5709,4.57,4.5658,4.5684,4.578,4.5633,4.5631,4.5664,4.5863,4.5901,4.5919,4.5746,4.5749,4.5751,4.5866,0,4.5908,4.5947,4.5896,4.5947,4.5958,4.5886,4.5908,4.5889,4.586,4.5865,4.5833,4.5839,4.5779,4.5774,4.5797,4.5763,4.5819,4.5754,4.5767,4.5768,4.5778,4.5938,4.5977,4.6087,4.588,4.5882,4.5884,0,4.6039,4.6031,4.6084,4.6048,4.6051,4.6071,4.6062,4.6068,4.6046,4.6023,4.6016,4.5967,4.599,4.5925,4.5957,4.5915,4.5917,4.5902,4.5905,4.5905,4.5833,4.5945,4.612,4.6138,4.5905,4.5903,4.5902,0,4.6168,4.6171,4.6204,4.6197,4.6154,4.6171,4.6154,4.6129,4.6129,4.6121,4.6121,4.6116,4.6113,4.6111,4.6063,4.6019,4.6103,4.6032,4.6086,4.6088,4.6108,4.6108,4.6289,4.6106,4.6106,4.6106,4.6105,0,4.6295,4.6332,4.6262,4.6282,4.6321,4.6262,4.6303,4.6278,4.6257,4.6273,4.6209,4.6225,4.6159,4.6169,4.6131,4.6166,4.6164,4.6148,4.6138,4.6155,4.6158,4.6156,4.6148,4.611,4.6109,4.6108,4.6107,0,4.6447,4.6401,4.6433,4.6391,4.6382,4.6413,4.6377,4.6396,4.6363,4.6384,4.6385,4.6335,4.6343,4.6295,4.6293,4.6268,4.6323,4.6298,4.6331,4.6324,4.6382,4.6378,4.657,4.6593,4.6394,4.6396,4.6398,0,4.6532,4.6559,4.6521,4.6527,4.6514,4.6524,4.6525,4.6469,4.6472,4.6451,4.6472,4.6475,4.6475,4.6492,4.6456,4.6456,4.6432,4.65,4.6432,4.645,4.6437,4.6437,4.644,4.6514,4.6517,4.6519,4.652,0,4.6689,4.6666,4.6669,4.6667,4.6669,4.6664,4.6654,4.6663,4.6602,4.6609,4.6618,4.6618,4.6618,4.6623,4.6617,4.66,4.6552,4.6542,4.6555,4.6574,4.6593,4.6586,4.6372,4.6538,4.6536,4.6535,4.6534,4.6533,4.6812,4.6833,4.6811,4.6818,4.6805,4.6798,4.6814,4.6785,4.6791,4.6788,4.6754,4.677,4.675,4.6736,4.6725,4.6737,4.6705,4.6723,4.6728,4.6734,4.6745,4.659,4.6735,4.6734,4.6734,4.6733,4.6733,0,4.6968,4.6951,4.6958,4.6947,4.6954,4.6908,4.6895,4.6904,4.6919,4.6904,4.6906,4.6918,4.6923,4.6889,4.689,4.6907,4.6885,4.6909,4.6908,4.6906,4.6772,4.6762,4.6927,4.6927,4.6927,4.6927,4.6927,4.6927,4.705,4.7086,4.7061,4.709,4.7072,4.7088,4.7085,4.7079,4.7068,4.7084,4.7089,4.7066,4.7044,4.7044,4.7048,4.7038,4.7042,4.7075,4.7058,4.6934,4.6915,4.6897,4.6887,4.7076,4.7076,4.719,4.7191,4.7192]},{"header":{"parameterUnit":"m.s-1","parameterCategory":1,"la1":30.2991,"la2":30.254,"lo1":-89.0895,"lo2":-89.0444,"dy":0.0017,"dx":0.0017,"nx":28,"ny":28,"refTime":"2024-03-21T09:00:00:Z","depth":0,"parameterNumber":3,"parameterNumberName":"V-component_of_WINDS"},"data":[0,0,0,0,0,0,0,0,0,0,0,0,0,0,0,0,0,0,0,0,0,0,0,0,0,0,0,0,0,0,0,0,0,0,0,0,0,0,0,0,0,0,0,0,0,0,0,0,0,0,0,0,0,0,0,0,0,0,-0.1095,-0.1091,0,-0.0753,-0.0749,-0.0746,-0.0656,-0.0658,-0.066,-0.0662,-0.0299,-0.0288,-0.0276,0,0,0,0,0,0,0,0,0,0,0,0,0,-0.166,-0.165,-0.1095,-0.1091,-0.1087,-0.0754,-0.0749,-0.0745,-0.0656,-0.0658,-0.0661,-0.0663,-0.0303,-0.0289,-0.0275,0,0,0,0,0,0,0,0,0,0,0,0,0,-0.1376,-0.1647,-0.1096,-0.1003,-0.0991,-0.0755,-0.0749,-0.0743,-0.0655,-0.0658,-0.0661,-0.0664,-0.0307,-0.029,-0.0273,-0.0102,0,0,-0.022,-0.0212,0,0,0,0,0,0,0,0,-0.1392,-0.1355,-0.1021,-0.1009,-0.0995,-0.0751,-0.0815,-0.0528,-0.0654,-0.0782,-0.0662,-0.0666,-0.0446,-0.0417,-0.0346,-0.0085,-0.0069,-0.0218,-0.0207,-0.02,-0.0195,0,0,0,0,0,0,0,-0.1412,-0.1369,-0.096,-0.1016,-0.1,-0.0974,-0.0937,-0.076,-0.06,-0.0771,-0.0764,-0.0725,-0.0439,-0.0363,-0.0336,-0.0064,-0.0219,-0.0203,-0.0192,-0.0185,0.0355,0.0359,0,0,0,0,0,0,-0.1449,-0.1386,-0.097,-0.0949,-0.1206,-0.0962,-0.092,-0.0826,-0.0602,-0.0571,-0.0723,-0.0723,-0.0391,-0.0357,-0.0323,-0.0108,-0.02,-0.0184,-0.0174,0.0351,0.0356,0.036,0,0,0,0,0,0,-0.1462,-0.1413,-0.0984,-0.1166,-0.1109,-0.0949,-0.0843,-0.0817,-0.0741,-0.0565,-0.0535,-0.0675,-0.0392,-0.0348,-0.0158,-0.0094,-0.0176,-0.016,0.0346,0.0352,0.0358,0.0323,0,0,0,0,0,0,-0.1479,-0.1418,-0.1354,-0.1165,-0.11,-0.0829,-0.0839,-0.0808,-0.0712,-0.0709,-0.0512,-0.0483,-0.0391,-0.0185,-0.0141,-0.0072,-0.0146,0.0342,0.0349,0.0356,0.032,0.0327,0.0334,0,0,0,0,0,-0.1499,-0.1374,-0.1351,-0.1301,-0.1017,-0.0825,-0.0787,-0.0689,-0.0708,-0.064,-0.0528,-0.0489,-0.0109,-0.0166,-0.0116,-0.004,0.0338,0.0347,0.0355,0.0316,0.0326,0.0334,0,0,0,0,0,0,-0.1554,-0.1347,-0.132,-0.1131,-0.0997,-0.0811,-0.0722,-0.0681,-0.0536,-0.0537,-0.0417,-0.0373,-0.0192,-0.0097,-0.0165,0.0137,0.0115,0.0134,0.0068,0.0079,0.0086,0.006,-0.0132,0,0,0,0,0,-0.1545,-0.1411,-0.1236,-0.1086,-0.102,-0.0884,-0.0796,-0.0732,-0.0586,-0.0528,-0.0401,-0.0258,-0.0107,-0.0009,0.0141,0.0333,0.0378,0.041,0.0417,0.0422,0.0438,0.0547,0.0563,0.0389,0.0388,0.0388,0,0,-0.1523,-0.1394,-0.1315,-0.1094,-0.0982,-0.0842,-0.0836,-0.0687,-0.0581,-0.0503,-0.0319,-0.0221,-0.0053,0.0138,0.0229,0.0223,0.0495,0.0433,0.0435,0.045,0.0557,0.0573,0.0588,0.0394,0.0393,0.0392,0,0,-0.1412,-0.1302,-0.1165,-0.1055,-0.0889,-0.0799,-0.0767,-0.0586,-0.052,-0.0334,-0.0273,-0.0144,0.0115,0.0232,0.0325,0.0476,0.0518,0.0522,0.056,0.0665,0.0679,0.0691,0.0746,0.0764,0.0537,0.0537,0.0537,0,-0.1404,-0.1195,-0.1099,-0.0954,-0.0858,-0.0787,-0.0647,-0.0543,-0.0334,-0.0268,-0.0279,0.0045,0.0164,0.0382,0.0418,0.0492,0.0535,0.0501,0.0668,0.0682,0.0695,0.0749,0.0769,0.0536,0.0536,0.0536,0.0536,0,-0.1194,-0.105,-0.0959,-0.0766,-0.0659,-0.0517,-0.0396,-0.0299,-0.0245,-0.0154,0.0036,0.0179,0.0358,0.0414,0.0471,0.0642,0.0633,0.0643,0.0624,0.071,0.0762,0.0783,0.0535,0.0535,0.0536,0.0536,0,0,-0.1104,-0.0863,-0.0831,-0.0743,-0.0556,-0.044,-0.0295,-0.0125,-0.0044,0.0097,0.0224,0.0439,0.0449,0.0554,0.0624,0.0715,0.0826,0.0716,0.0721,0.0732,0.1024,0.1016,0.1038,0.0854,0.0858,0.0861,0.101,0,-0.0969,-0.0712,-0.0622,-0.0407,-0.0272,-0.0204,-0.0077,0.0053,0.0142,0.0272,0.0373,0.0523,0.0524,0.0588,0.0681,0.0793,0.0887,0.0783,0.0976,0.0982,0.0932,0.1065,0.1058,0.1191,0.1031,0.1035,0.1037,0,-0.0777,-0.0639,-0.0413,-0.0245,-0.0184,-0.0073,0.009,0.0212,0.0362,0.0421,0.0535,0.0598,0.0756,0.0724,0.0944,0.0872,0.0956,0.1022,0.103,0.1053,0.1016,0.1093,0.1236,0.1256,0.1071,0.1068,0.1066,0,-0.0734,-0.0491,-0.0325,-0.0252,-0.0051,0.0026,0.0114,0.026,0.0355,0.0499,0.0562,0.0723,0.0812,0.0937,0.1042,0.1009,0.1252,0.123,0.1308,0.1305,0.1358,0.1354,0.1517,0.1409,0.1409,0.1409,0.1408,0,-0.0592,-0.0456,-0.0304,-0.0201,-0.0046,0.0056,0.0208,0.0301,0.0429,0.0553,0.0623,0.0739,0.087,0.1003,0.1087,0.1257,0.1297,0.135,0.1371,0.1345,0.1338,0.1403,0.1397,0.1414,0.1413,0.1412,0.1411,0,-0.0516,-0.041,-0.0224,-0.0052,-0.0005,0.0102,0.0252,0.0355,0.0445,0.0601,0.0644,0.0787,0.0948,0.1063,0.1273,0.1329,0.1511,0.1531,0.1459,0.1469,0.1541,0.1532,0.1753,0.1788,0.1655,0.1656,0.1657,0,-0.0432,-0.0327,-0.0145,-0.0059,0.0027,0.0165,0.0261,0.0367,0.0465,0.0641,0.0724,0.0888,0.1025,0.1279,0.1404,0.1564,0.1589,0.1655,0.1615,0.1584,0.1592,0.1584,0.1596,0.1662,0.1663,0.1664,0.1664,0,-0.0294,-0.0247,-0.0113,0.0039,0.0151,0.0278,0.0405,0.0473,0.0601,0.0709,0.087,0.0976,0.1186,0.1349,0.152,0.1615,0.1662,0.1675,0.1702,0.1677,0.1631,0.1657,0.1476,0.1671,0.167,0.167,0.1669,0.1669,-0.021,-0.0114,0.0028,0.0175,0.0281,0.0398,0.0502,0.0603,0.0739,0.0915,0.097,0.1138,0.1285,0.1518,0.1615,0.175,0.1748,0.1787,0.1797,0.1805,0.1803,0.1607,0.1782,0.1782,0.1782,0.1782,0.1782,0,-0.0068,0.0026,0.016,0.0333,0.0449,0.0477,0.062,0.0716,0.0861,0.0992,0.1123,0.1309,0.1467,0.1602,0.1766,0.1848,0.1874,0.1888,0.1884,0.1905,0.1796,0.1756,0.1864,0.1864,0.1864,0.1864,0.1864,0.1864,0.002,0.0184,0.0247,0.0464,0.0559,0.072,0.0799,0.0908,0.1012,0.1215,0.1344,0.1429,0.1563,0.1736,0.1882,0.1918,0.1976,0.1985,0.2026,0.1922,0.1913,0.1904,0.1867,0.1996,0.1996,0.2125,0.2126,0.2127]}]]